DW4776 Weather Reports


time (UTC)temp
C
wind
direction
speed
KPH
gust
KPH
rain 1hr
cm
rain 24hr
cm
rain mn
cm
humidity
%
barometer
mb
20260901070048 15 0 0.0 6.4 0.00 0.00 0.00 48 1014.6
20260901064542 15 0 0.0 4.8 0.00 0.00 0.00 48 1014.7
20260901063053 16 173 8.0 16.1 0.00 0.00 0.00 47 1014.8
20260901061545 16 185 4.8 14.5 0.00 0.00 0.00 47 1014.7
20260901060045 15 203 3.2 11.3 0.00 0.00 0.00 47 1015.0
20260901054544 15 163 4.8 12.9 0.00 0.00 0.00 47 1014.9
20260901053055 15 351 1.6 4.8 0.00 0.00 0.00 49 1014.9
20260901051545 15 134 1.6 6.4 0.00 0.00 0.00 49 1014.9
20260901050045 15 0 0.0 3.2 0.00 0.00 0.00 50 1015.0
20260901044543 15 0 0.0 1.6 0.00 0.00 0.00 50 1015.0
20260901043045 15 0 0.0 3.2 0.00 0.00 0.00 50 1015.0
20260901041543 15 0 1.6 4.8 0.00 0.00 0.00 50 1015.1
20260901040044 15 60 3.2 8.0 0.00 0.00 0.00 50 1015.0
20260901034546 15 62 4.8 8.0 0.00 0.00 0.00 49 1014.7
20260901033048 16 40 4.8 6.4 0.00 0.00 0.00 46 1014.5
20260901031546 16 73 3.2 8.0 0.00 0.00 0.00 44 1014.4
20260901030045 17 104 1.6 8.0 0.00 0.00 0.00 42 1014.4
20260901024546 19 95 3.2 8.0 0.00 0.00 0.00 38 1014.2
20260901023044 20 105 3.2 11.3 0.00 0.00 0.00 36 1014.3
20260901021544 21 130 1.6 11.3 0.00 0.00 0.00 34 1014.1
20260901020043 21 175 3.2 9.7 0.00 0.00 0.00 32 1014.3
20260901014548 22 168 1.6 6.4 0.00 0.00 0.00 30 1014.3
20260901013043 23 0 1.6 3.2 0.00 0.00 0.00 29 1014.3
20260901011544 22 251 1.6 8.0 0.00 0.00 0.00 29 1014.4
20260901010047 23 245 3.2 11.3 0.00 0.00 0.00 29 1014.6
20260901004546 23 253 6.4 16.1 0.00 0.00 0.00 29 1014.7
20260901003042 22 239 8.0 14.5 0.00 0.00 0.00 29 1014.7
20260901001544 22 268 9.7 17.7 0.00 0.00 0.00 29 1014.7
20260901000045 23 270 9.7 17.7 0.00 0.00 0.00 30 1014.7
20260831234552 22 210 4.8 22.5 0.00 0.00 0.00 30 1014.7
20260831233047 22 323 4.8 17.7 0.00 0.00 0.00 31 1014.8
20260831231542 23 236 16.1 22.5 0.00 0.00 0.00 31 1014.8
20260831230043 22 291 6.4 22.5 0.00 0.00 0.00 32 1015.0
20260831224546 23 237 12.9 22.5 0.00 0.00 0.00 32 1014.9
20260831223052 22 0 3.2 16.1 0.00 0.00 0.00 33 1015.0
20260831221543 22 283 12.9 25.7 0.00 0.00 0.00 33 1015.0
20260831220042 22 258 3.2 17.7 0.00 0.00 0.00 35 1015.1
20260831214557 22 309 8.0 22.5 0.00 0.00 0.00 35 1015.2
20260831213043 22 223 12.9 29.0 0.00 0.00 0.00 34 1015.4
20260831211545 21 253 8.0 32.2 0.00 0.00 0.00 35 1015.2
20260831210045 21 224 14.5 25.7 0.00 0.00 0.00 35 1015.4
20260831204544 21 247 11.3 30.6 0.00 0.00 0.00 36 1015.5
20260831203041 21 192 11.3 25.7 0.00 0.00 0.00 37 1015.6
20260831201553 21 243 16.1 27.4 0.00 0.00 0.00 37 1015.8
20260831200044 21 270 12.9 33.8 0.00 0.00 0.00 38 1015.8
20260831194545 20 243 17.7 32.2 0.00 0.00 0.00 39 1015.9
20260831193112 20 281 14.5 24.1 0.00 0.00 0.00 39 1015.9
20260831191540 20 252 17.7 27.4 0.00 0.00 0.00 40 1016.1
20260831190049 20 283 14.5 25.7 0.00 0.00 0.00 41 1016.3
20260831184540 19 289 8.0 22.5 0.00 0.00 0.00 42 1016.2
20260831183044 19 248 8.0 24.1 0.00 0.00 0.00 43 1016.5
20260831181551 18 287 17.7 25.7 0.00 0.00 0.00 43 1016.6
20260831180044 18 291 16.1 29.0 0.00 0.00 0.00 45 1016.5
20260831174546 18 287 11.3 29.0 0.00 0.00 0.00 46 1016.6
20260831173046 18 290 14.5 29.0 0.00 0.00 0.00 46 1016.7
20260831171543 18 268 14.5 24.1 0.00 0.00 0.00 47 1016.8
20260831170045 17 291 20.9 29.0 0.00 0.00 0.00 48 1016.8
20260831164603 17 269 17.7 29.0 0.00 0.00 0.00 49 1016.6
20260831163044 17 287 20.9 29.0 0.00 0.00 0.00 50 1016.6
20260831161600 16 298 19.3 30.6 0.00 0.00 0.00 52 1016.6
20260831160059 16 310 20.9 29.0 0.00 0.00 0.00 53 1016.5
20260831154613 16 310 24.1 32.2 0.00 0.00 0.00 53 1016.5
20260831153044 16 301 20.9 30.6 0.00 0.00 0.00 54 1016.5
20260831151548 16 296 22.5 30.6 0.00 0.00 0.00 52 1016.2
20260831150050 16 293 24.1 33.8 0.00 0.00 0.00 52 1016.0
20260831144544 15 295 22.5 41.8 0.00 0.00 0.00 52 1015.9
20260831143044 15 284 20.9 48.3 0.00 0.00 0.00 53 1015.7
20260831141540 14 256 16.1 32.2 0.00 0.00 0.00 54 1015.6
20260831140045 13 268 17.7 30.6 0.00 0.00 0.00 56 1015.5
20260831134552 12 279 16.1 24.1 0.00 0.00 0.00 62 1015.2
20260831133045 10 278 6.4 11.3 0.00 0.00 0.00 67 1015.0
20260831131555 10 274 8.0 19.3 0.00 0.00 0.00 67 1015.0
20260831130047 10 298 14.5 19.3 0.00 0.00 0.00 65 1014.6
20260831124544 11 306 14.5 27.4 0.00 0.00 0.00 64 1014.6
20260831123046 11 277 22.5 33.8 0.00 0.00 0.00 63 1014.3
20260831121538 11 262 20.9 29.0 0.00 0.00 0.00 65 1014.2
20260831120048 11 274 24.1 32.2 0.00 0.00 0.00 66 1014.1
20260831114541 9 285 19.3 29.0 0.00 0.00 0.00 72 1014.1
20260831113046 8 285 14.5 24.1 0.00 0.00 0.00 73 1014.1
20260831111551 8 283 16.1 22.5 0.00 0.00 0.00 72 1014.1
20260831110042 9 259 14.5 20.9 0.00 0.00 0.00 72 1014.1
20260831104548 8 264 16.1 22.5 0.00 0.00 0.00 74 1014.0
20260831103044 8 263 12.9 19.3 0.00 0.00 0.00 73 1014.0
20260831101548 8 258 12.9 22.5 0.00 0.00 0.00 73 1013.9
20260831100104 8 268 8.0 12.9 0.00 0.00 0.00 76 1013.8
20260831094548 8 260 6.4 11.3 0.00 0.00 0.00 75 1013.7
20260831093057 8 263 1.6 6.4 0.00 0.00 0.00 76 1013.6
20260831091546 8 269 6.4 14.5 0.00 0.00 0.00 76 1013.7
20260831090056 7 252 8.0 16.1 0.00 0.00 0.00 77 1013.5
20260831084544 8 208 11.3 19.3 0.00 0.00 0.00 75 1013.1
20260831083100 9 206 9.7 22.5 0.00 0.00 0.00 72 1013.1
20260831081556 8 264 11.3 17.7 0.00 0.00 0.00 74 1012.7
20260831080120 8 258 9.7 17.7 0.00 0.00 0.00 74 1012.6
20260831074544 8 227 14.5 22.5 0.00 0.00 0.00 74 1012.7
20260831073047 10 201 17.7 25.7 0.00 0.00 0.00 71 1012.5
20260831071547 10 246 17.7 32.2 0.00 0.00 0.00 68 1012.4